Navstar 2

operational
NORAD ID: 10893 Int'l Des: 1978-047 Owner: SAMSO Country: US Constellation: GPS
MEO

About Navstar 2

Description loading...

Live Position

Loading 3D Globe...

Upcoming Passes

Altitude History

Altitude vs Time

uPlot chart will show altitude changes over time

Two-Line Element Set

1 10893U 78047A 25352.38667235 -.00000033 00000-0 00000-0 0 9991
2 10893 62.7849 278.2194 0540220 42.1415 132.1407 2.01627019350084
Epoch: Dec 18, 2025 • Age: 13 hours

Current Status

Altitude 21516.1 km
Velocity 3.68 km/s
Sub-Earth Point -31.10°S, 50.64°E
Launch Date May 13, 1978
Age 47.6 years
Type navigation

Technical Details

Classification Payload
Mass 409.00 kg
Dry Mass 409.00 kg
Total Mass 775.00 kg
Length 2.40 m
Diameter 2.60 m
Span 5.30 m
Shape Box + 2 Pan
Manufacturer RWISB
Bus Type GPS
Phase Status In Orbit
Owner/State SAMSO/US

Large Constellations

Loading constellations...